Regional Weather Roundup
Issued by NWS

Home | Current Version | Previous Version | Text Only | Print | Product List | Glossary Off
Versions: 1 2 3 4 5 6 7 8 9 10 11 12 13 14 15 16 17 18 19 20 21 22 23 24 25 26 27

000
ASUS45 KCYS 081510
RWRWY

WYOMING REGIONAL WEATHER ROUNDUP
NATIONAL WEATHER SERVICE CHEYENNE WY
800 AM MST THU DEC 08 2016

NOTE:  "FAIR" INDICATES FEW OR NO CLOUDS BELOW 12,000 FEET
WITH NO SIGNIFICANT WEATHER AND/OR OBSTRUCTIONS TO VISIBILITY.

WYZ001-081600-
YELLOWSTONE NATIONAL PARK

CITY           SKY/WX    TMP DP  RH WIND       PRES   REMARKS
LK YELLOWSTONE   N/A    -13 -17  82 NW3       30.15S
W YELLOWSTONE  NOT AVBL

$$
WYZ002>013-054>058-071-098>099-081600-
NORTHERN WYOMING

CITY           SKY/WX    TMP DP  RH WIND       PRES   REMARKS
JACKSON        PTCLDY   -22 -26  83 N7        30.29S WCI -39
CODY           FAIR     -10 -15  78 S6        30.35S WCI -23
GREYBULL       FAIR      -6 -11  79 S5        30.47F WCI -17
WORLAND        FAIR     -10 -14  82 CALM      30.44S
SHERIDAN       FAIR     -10 -16  74 CALM      30.47S
BUFFALO        FAIR      -3 -14  59 SW6       30.38S WCI -15
GILLETTE       FAIR     -14 -17  87 CALM      30.46S
HULETT         FAIR     -13 -18  77 S9        30.47R WCI -31
NEWCASTLE      FAIR     -11 -18  70 CALM      30.50R

$$
WYZ014>020-022>026-101>103-081600-
CENTRAL WYOMING

CITY           SKY/WX    TMP DP  RH WIND       PRES   REMARKS
BIG PINEY      FAIR     -16 -20  82 CALM      30.25S
PINEDALE       FAIR     -18 -26  69 W6        30.25S WCI -33
DUBOIS         FAIR      -6 -15  65 NW13      30.15S WCI -25
LANDER         FAIR      -4  -9  79 CALM      30.30F
RIVERTON       FAIR      -4  -9  79 W5        30.32F WCI -15
CASPER         FAIR     -29 -33  81 CALM      30.37S
DOUGLAS        FAIR     -19 -26  70 CALM      30.44R

$$
WYZ021-027>030-104>119-081600-
SOUTHERN WYOMING

CITY           SKY/WX    TMP DP  RH WIND       PRES   REMARKS
EVANSTON       CLOUDY     3  -5  69 VRB5      30.18R WCI  -6
KEMMERER         N/A     -6  -9  84 N10       30.19F WCI -23
FORT BRIDGER   CLOUDY    -2  -5  88 NE5       30.24S WCI -12
ROCK SPRINGS   FAIR      -9 -12  87 CALM      30.24S
DIXON          FAIR      -4 -12  69 S7        30.31S WCI -18
RAWLINS        FAIR     -14 -20  74 CALM      30.26R
SARATOGA       FAIR      -8 -15  71 CALM      30.25S
LARAMIE        FAIR     -18 -23  77 S3        30.22R
CHEYENNE       FAIR      -8 -14  74 W8        30.30S WCI -24
TORRINGTON     FAIR     -11 -15  82 NW5       30.50S WCI -23
PINE BLUFFS    FAIR     -17 -22  76 MISG      30.42R

$$




USA.gov is the U.S. government's official web portal to all federal, state and local government web resources and services.